Regional Weather Roundup
Issued by NWS

Home | Current Version | Previous Version | Graphics & Text | Print | Product List | Glossary On
Versions: 1 2 3 4 5 6 7 8 9 10 11 12 13 14 15 16 17 18 19 20 21 22 23 24 25 26 27 28 29 30 31 32 33 34 35 36 37 38 39 40 41 42 43 44 45 46 47 48 49 50
000
ASUS43 KIND 231609
RWRIN

WEATHER ROUNDUP FOR INDIANA
NATIONAL WEATHER SERVICE INDIANAPOLIS IN
1200 PM EDT TUE SEP 23 2014

NOTE: "FAIR" INDICATES FEW OR NO CLOUDS BELOW 12,000 FEET WITH NO
SIGNIFICANT WEATHER AND/OR OBSTRUCTIONS TO VISIBILITY.

* - STATION DOES NOT REPORT WEATHER SUCH AS PRECIPITATION OR FOG.

+ - STATION NOT QUALITY CONTROLLED BY THE NATIONAL WEATHER SERVICE.
    USE DATA WITH CAUTION...ESPECIALLY DEWPOINT AND RELATIVE
    HUMIDITY OBSERVATIONS.

INZ001>003-010>013-019-020-231700-
NORTHWEST INDIANA

CITY           SKY/WX    TMP DP  RH WIND       PRES   REMARKS
GARY /AIRPORT/ SUNNY     66  46  48 VRB5      30.36R
KNOX *+        SUNNY     63  47  54 SW3       30.36S
LA PORTE +     SUNNY     63  48  57 CALM      30.37S
MICHIGAN CITY+ SUNNY     64  46  52 CALM      30.36S
MONTICELLO +   SUNNY     64  49  57 CALM      30.36S
RENSSELAER +   SUNNY     64  48  55 CALM      30.36F
VALPARAISO     SUNNY     64  47  53 SW6       30.37S

$$

LMZ046-743>745-231700-
SOUTHERN LAKE MICHIGAN

STATION/POSITION TIME  TEMP WIND        PRES
                       AIR  DIR/SP/G
                 (UTC) (F)  (DEG/KT/KT) (MB)

$$

INZ004-005-014>016-021>024-231700-
NORTH CENTRAL INDIANA

CITY           SKY/WX    TMP DP  RH WIND       PRES   REMARKS
ELKHART        SUNNY     64  46  52 CALM      30.37R
GOSHEN         SUNNY    N/A N/A N/A SW3       30.36S
LOGANSPORT +   SUNNY     63  45  51 CALM      30.37S
PERU/GRISSOM   SUNNY     64  50  60 NE6       30.36S
ROCHESTER +    SUNNY     64  50  59 CALM      30.38R
SOUTH BEND     SUNNY     65  48  54 W5        30.37S
WARSAW +       SUNNY     63  46  55 CALM      30.37S

$$

INZ006>009-017-018-025>027-231700-
NORTHEAST INDIANA

CITY           SKY/WX    TMP DP  RH WIND       PRES   REMARKS
ANGOLA *+      SUNNY     64  46  52 VRB3      30.36F
AUBURN +       SUNNY     63  45  51 CALM      30.38S
FORT WAYNE     SUNNY     64  49  57 CALM      30.38S
HUNTINGTON +   SUNNY     62  49  62 CALM      30.37S

$$

INZ028-029-035-036-043>045-051>053-231700-
WEST CENTRAL INDIANA

CITY           SKY/WX    TMP DP  RH WIND       PRES   REMARKS
GREENCASTLE +  SUNNY     63  46  55 E3        30.36S
LAFAYETTE      SUNNY     64  48  56 NE3       30.36S
TERRE HAUTE    SUNNY     66  47  50 VRB7      30.36S

$$

INZ030>032-037>040-046>048-054>057-064-065-231700-
CENTRAL INDIANA

CITY           SKY/WX    TMP DP  RH WIND       PRES   REMARKS
ANDERSON       SUNNY     64  46  52 CALM      30.37F
CP ATTERBURY + SUNNY     63  45  51 SE5       30.37S
FRANKFORT +    SUNNY     67  47  48 NE5       30.37S
INDIANAPOLIS   SUNNY     63  46  54 SE5       30.36S
-EAGLE CREEK   SUNNY     65  45  48 VRB5      30.35F
KOKOMO *+      SUNNY     66  48  52 NE6       30.37S
MARION +       SUNNY     64  45  50 N6        30.37F
MT COMFORT *+  SUNNY     64  36  34 CALM      30.36F
SHELBYVILLE    SUNNY     66  45  46 SE5       30.35F
ZIONSVILLE +   SUNNY     65  45  48 E7        30.36F

$$

INZ033-034-041-042-049-050-058-059-231700-
EAST CENTRAL INDIANA

CITY           SKY/WX    TMP DP  RH WIND       PRES   REMARKS
MUNCIE         SUNNY     63  33  32 N5        30.36F

$$

INZ060-061-067>069-081>083-085>088-231700-
SOUTHWEST INDIANA

CITY           SKY/WX    TMP DP  RH WIND       PRES   REMARKS
EVANSVILLE     SUNNY     66  45  46 VRB6      30.33F
WASHINGTON +   SUNNY     65  46  48 NE5       30.34F

$$

INZ062-063-066-070>080-084-089>092-231700-
SOUTH CENTRAL AND SOUTHEAST INDIANA

CITY           SKY/WX    TMP DP  RH WIND       PRES   REMARKS
BEDFORD +      SUNNY     63  41  45 E8        30.35S
BLOOMINGTON    SUNNY     64  44  48 E6        30.36R

$$




USA.gov is the U.S. government's official web portal to all federal, state and local government web resources and services.